Temperature
5 5 5 6 7 7 7 7 7 7 8 8 8 8 8 8 8 8 9 9 10 11 11 12 12 13 13 13 13 13 13 13 13 13 13 13 13 13 13 13 13 13 13 13
4 5 6 6 7 7 7 7 7 7 8 8 7 7 7 7 7 8 8 8 9 10 11 11 12 12 12 12 13 12 13 13 13 13 13 13 13 13 13 12 12 12 12 12
4 5 6 6 6 6 6 6 6 7 7 7 7 7 7 7 7 8 8 8 9 9 10 11 11 11 11 12 12 12 12 12 12 12 12 12 12 12 12 12 12 12 12 12
4 5 6 6 6 6 6 7 7 7 7 6 7 6 6 6 6 6 7 8 8 9 10 10 10 11 11 11 12 12 12 12 12 12 12 12 12 12 12 12 12 12 12 12
4 5 5 5 6 6 6 7 7 7 6 5 6 6 6 6 6 6 6 7 8 9 9 9 10 10 11 11 11 11 11 11 11 11 11 11 11 12 12 11 11 11 11 11
4 4 5 5 6 6 6 6 6 5 5 5 5 5 5 5 6 6 6 6 7 8 9 9 9 10 10 10 10 10 11 11 11 11 11 11 11 11 11 11 11 11 11 11
3 4 4 5 5 5 5 5 5 5 5 5 5 5 5 5 5 5 6 6 7 7 8 8 9 9 9 9 10 10 10 10 10 10 10 10 10 10 10 11 10 10 10 10
2 3 3 4 4 4 4 5 5 5 5 4 4 4 5 5 5 5 5 5 6 6 7 7 8 8 9 9 9 9 9 9 9 9 9 9 10 10 10 10 10 10 10 10
2 2 3 4 4 4 4 4 4 3 3 3 3 3 4 4 4 4 4 5 5 5 6 7 7 8 8 8 8 9 9 9 9 9 9 9 9 9 9 9 9 9 9 9
2 2 2 3 4 4 4 3 3 3 4 4 4 3 4 4 4 4 3 4 4 5 5 6 7 7 7 8 8 8 8 8 8 8 8 8 8 8 8 8 8 8 8 8
1 1 2 2 2 2 3 3 2 2 2 3 4 4 4 3 3 3 3 4 4 4 5 5 6 6 6 7 7 7 7 7 7 7 7 7 7 7 7 7 8 8 7 7
1 0 0 1 2 2 2 2 2 3 2 1 2 3 4 2 2 2 3 3 3 4 4 5 5 5 6 6 6 6 6 6 6 6 7 7 7 7 7 7 7 7 7 7
0 -0 0 1 2 1 1 1 1 1 1 0 2 4 3 2 2 2 2 3 3 3 3 4 4 4 5 5 5 5 5 6 6 6 6 6 6 6 6 6 6 6 6 6
1 -1 -0 1 1 0 0 1 1 1 1 1 1 3 3 2 2 2 2 2 3 3 3 3 3 4 4 4 4 5 5 5 5 5 5 5 5 5 5 5 5 5 5 5
-0 -1 -2 -1 -0 0 0 1 1 1 1 1 2 2 2 2 1 1 1 2 2 2 2 3 3 3 3 3 4 4 4 4 4 4 5 5 5 4 4 4 4 4 4 5
-2 -2 -2 -1 -0 -0 -0 0 1 1 1 1 1 1 1 1 1 1 1 1 1 1 2 2 2 2 3 3 3 3 3 3 4 4 4 4 4 4 4 4 4 4 4 4
-3 -2 -1 -1 -1 -0 -0 -0 -0 -0 -0 0 1 1 0 -0 -0 0 1 1 1 1 1 1 2 2 2 2 2 3 3 3 3 3 3 3 3 4 4 4 4 3 3 3
-3 -3 -3 -2 -1 -0 0 -1 -1 -1 -1 -1 -1 -1 -0 0 1 1 1 1 1 1 1 1 1 1 2 2 2 2 2 2 2 2 2 3 3 3 3 3 3 3 3 3
-3 -3 -3 -3 -2 -2 -1 -1 -2 -2 -1 -2 -1 -1 -1 -1 -1 0 1 1 1 1 1 1 1 1 1 1 1 1 1 1 1 2 2 2 2 2 2 2 2 2 2 2
-3 -4 -4 -4 -2 -1 -0 -1 -1 -1 -1 -1 -2 -2 -2 -2 -1 -0 1 1 1 1 1 0 0 0 0 0 1 1 1 1 1 1 1 1 1 1 1 1 1 1 1 1
-4 -4 -4 -4 -3 -2 -2 -2 -1 -1 -0 -1 -1 -1 -1 -2 -1 1 1 1 1 0 0 -0 0 0 0 0 0 0 0 0 0 0 0 0 0 1 1 1 0 0 0 0
-3 -4 -5 -5 -4 -2 -2 -2 -2 -1 -0 -0 -1 -1 -1 -1 -0 0 0 0 -0 -0 -0 -0 -0 -0 -0 -0 -0 -0 -0 -0 -0 -0 -0 -0 -0 -0 -0 -0 -0 -0 -0 -0
-4 -4 -4 -4 -2 -2 -2 -2 -1 -1 -1 -1 -0 -0 -1 -1 -1 -0 -0 -1 -1 -1 -1 -1 -1 -1 -1 -1 -1 -1 -1 -1 -1 -1 -1 -1 -1 -1 -1 -1 -1 -1 -1 -1
-5 -5 -5 -5 -4 -3 -2 -1 -1 -1 -1 -0 -1 -1 -1 -1 -1 -1 -1 -1 -1 -1 -1 -1 -1 -1 -1 -1 -1 -1 -1 -2 -1 -1 -1 -2 -2 -2 -2 -2 -2 -2 -2 -2
-5 -5 -5 -5 -4 -3 -2 -1 -1 -1 -1 -1 -1 -1 -1 -1 -1 -2 -2 -2 -2 -2 -2 -2 -2 -2 -2 -2 -2 -2 -2 -2 -2 -2 -2 -2 -2 -2 -2 -2 -2 -2 -2 -2
-6 -5 -5 -3 -3 -4 -2 -0 -1 -1 -1 -1 -1 -1 -2 -2 -2 -2 -2 -2 -2 -2 -2 -2 -2 -2 -2 -3 -3 -3 -3 -3 -3 -3 -3 -3 -3 -3 -3 -3 -3 -3 -3 -3
Wind_Speed
1 2 3 6 6 3 4 5 4 3 2 2 3 3 4 2 0 1 1 1 2 3 2 0 1 2 3 3 4 5 5 4 5 4 4 3 3 2 2 3 5 6 6 6
3 3 4 2 3 4 4 4 3 0 1 1 1 3 3 1 2 3 3 2 3 2 1 1 1 2 3 4 4 4 4 5 5 5 4 3 3 2 2 2 3 5 6 6
3 2 1 2 3 4 2 5 5 3 1 2 2 3 3 2 0 1 1 1 1 2 2 2 1 2 2 3 3 4 4 4 4 4 3 3 3 2 2 2 2 3 5 6
0 1 1 2 2 3 3 3 4 4 3 1 2 3 5 3 2 2 3 2 2 3 2 2 1 2 2 3 2 2 2 3 3 4 5 6 5 4 4 3 2 2 4 5
1 0 2 2 2 2 2 2 3 3 3 1 0 2 5 2 3 5 4 3 3 3 2 2 1 2 2 1 2 2 2 2 2 4 5 6 4 3 2 2 3 2 2 3
2 1 1 1 1 1 2 4 5 4 3 2 4 4 5 3 5 4 4 3 3 3 2 1 1 0 1 2 2 2 2 2 2 3 3 4 4 4 4 3 3 2 1 1
4 3 3 2 3 2 4 5 2 1 1 4 2 3 6 4 4 5 5 4 3 2 1 1 1 1 1 1 1 1 2 1 1 2 3 3 4 5 5 4 3 3 2 1
2 2 3 2 1 2 2 3 5 4 4 2 1 5 6 4 3 3 3 2 2 2 2 2 1 1 1 1 1 1 2 1 1 2 2 2 3 3 3 3 3 3 2 2
1 2 3 1 1 3 2 1 2 4 2 1 4 5 7 3 3 2 2 1 2 3 3 3 2 1 1 1 1 1 2 1 1 1 1 1 2 2 2 3 3 2 1 2
1 1 3 2 3 3 2 4 3 3 3 2 3 4 4 4 5 4 2 2 3 3 3 3 2 2 1 0 0 1 1 1 1 2 2 1 1 2 2 3 3 2 2 2
2 1 3 2 1 1 2 2 2 2 2 4 3 6 4 5 4 4 5 3 2 2 2 2 2 2 2 2 2 2 1 1 1 1 2 2 2 2 2 2 2 2 2 2
2 2 1 3 2 0 2 3 4 4 3 2 2 6 3 3 3 3 3 3 2 2 2 1 2 2 2 2 2 1 1 1 1 1 2 1 2 2 2 2 2 2 2 2
2 3 2 4 3 2 1 1 3 3 3 3 4 6 2 2 3 2 2 3 3 2 2 2 2 2 2 2 2 1 1 1 1 1 2 2 2 2 1 1 2 2 2 2
2 2 4 6 4 2 3 3 3 4 4 5 7 8 7 5 4 4 3 3 1 1 1 1 1 2 2 2 2 2 2 1 1 1 2 1 1 1 1 1 2 2 2 3
3 2 2 4 4 3 4 6 6 7 8 8 8 8 9 6 4 4 3 2 1 1 1 1 1 1 2 2 2 2 2 2 1 1 1 1 1 1 1 1 1 2 2 2
2 1 0 3 3 3 5 8 9 9 7 8 8 10 7 5 3 3 3 2 2 2 2 2 1 1 1 1 2 2 2 2 1 1 1 1 1 2 2 1 2 2 2 2
1 2 1 3 4 3 6 8 9 6 6 7 11 10 4 4 5 5 4 4 4 4 3 2 2 1 1 1 1 1 1 2 1 1 1 1 1 1 2 2 2 2 2 2
3 3 1 1 2 5 7 1 4 6 7 7 7 6 5 6 5 4 4 5 5 4 3 2 2 1 1 1 1 1 2 2 2 2 2 2 1 1 2 3 2 2 2 2
4 4 2 1 2 7 7 3 3 4 7 7 9 8 6 3 3 4 4 4 5 4 3 2 1 1 0 0 1 1 2 2 2 2 1 1 1 1 2 2 2 2 2 1
3 3 3 3 2 6 6 1 2 2 6 4 5 7 5 1 3 6 3 2 2 2 1 1 0 1 1 0 1 2 2 2 1 1 1 1 0 1 2 2 2 2 2 1
1 1 3 4 5 8 6 2 3 3 6 3 4 6 5 5 7 4 2 2 2 1 1 1 1 1 1 1 2 2 1 1 1 1 1 1 1 1 1 2 2 2 2 2
6 5 5 5 5 8 3 5 6 7 3 2 3 4 5 5 4 2 2 2 2 2 1 1 1 0 0 1 2 1 0 1 1 1 1 1 1 1 1 2 2 2 2 3
7 8 6 8 9 4 5 6 4 2 3 3 3 4 4 4 4 3 2 2 2 2 1 1 1 1 1 1 1 2 1 0 1 2 2 1 2 1 1 2 2 2 2 2
4 3 4 6 9 8 7 6 5 4 4 4 3 3 3 4 4 3 3 2 2 2 2 1 1 1 0 1 0 1 0 1 2 2 2 2 2 1 1 1 1 1 1 1
6 5 4 7 7 6 6 8 8 6 5 4 3 3 4 4 4 3 3 3 2 2 2 2 2 1 1 0 0 1 1 1 2 1 1 1 1 1 1 1 0 0 1 2
6 7 7 9 7 6 6 4 5 5 6 5 4 3 3 4 4 3 2 2 2 2 2 2 2 1 1 0 0 0 1 1 2 1 1 0 1 1 1 1 2 2 1 1
Wind_Direction
105 116 190 208 197 180 154 153 178 211 221 130 186 247 285 315 299 240 232 208 221 240 279 335 131 139 137 140 152 165 163 162 155 153 157 161 171 170 165 162 167 165 165 165
93 202 233 212 171 158 152 152 165 183 123 147 183 274 290 304 217 220 218 230 248 266 335 350 75 131 155 166 172 171 177 177 175 174 170 164 153 157 164 144 154 164 165 165
171 224 193 148 157 161 175 176 177 179 58 74 118 302 285 304 347 349 302 271 274 262 271 264 226 207 180 176 182 186 187 184 178 161 135 116 104 99 137 168 179 173 172 168
275 328 99 133 172 160 208 190 170 156 132 245 144 242 279 265 287 285 285 299 291 298 295 275 233 227 217 212 187 171 169 162 155 154 158 159 169 183 198 190 186 166 166 167
291 29 120 165 228 165 193 154 133 134 133 77 78 180 283 294 260 266 273 276 280 281 269 274 252 238 229 193 163 155 134 133 142 158 170 174 172 172 152 141 159 161 146 151
23 4 132 251 310 164 123 84 66 58 87 217 215 181 272 242 232 252 257 267 281 287 280 280 286 32 36 59 86 110 128 122 136 157 164 171 173 158 145 151 170 171 152 140
10 4 359 30 50 33 91 106 89 61 188 235 198 195 248 253 238 234 242 258 282 304 323 316 359 44 41 65 90 119 126 121 139 156 173 176 173 169 173 178 180 172 165 171
47 331 340 14 83 184 196 146 155 178 199 263 208 225 250 265 271 266 265 269 312 331 333 311 266 215 196 161 142 142 145 145 154 165 183 164 165 171 174 174 176 177 182 180
86 288 318 346 11 143 137 151 143 124 105 168 247 279 295 267 307 313 318 332 314 317 322 314 306 286 193 165 180 187 173 159 162 153 136 137 140 151 163 164 159 157 154 141
123 266 306 322 48 29 129 139 97 119 154 229 269 259 253 268 278 291 289 298 302 322 334 336 342 348 11 93 84 95 124 147 137 121 135 139 134 143 146 143 146 152 151 135
79 115 325 13 109 193 75 110 110 124 161 172 237 265 241 244 261 267 266 264 277 302 315 332 351 1 27 61 83 85 84 95 109 120 117 125 134 126 129 144 152 159 150 146
56 105 299 280 275 207 165 169 156 171 213 184 202 271 296 259 281 277 285 309 323 324 330 1 22 27 33 47 65 77 93 107 112 120 114 113 118 121 130 151 155 149 147 149
84 100 45 349 346 7 347 207 162 142 137 181 206 265 317 337 333 326 310 320 327 351 19 30 34 29 24 25 32 48 57 67 70 86 104 109 121 125 148 166 154 144 145 142
96 125 182 205 231 228 260 254 197 165 197 222 229 257 289 300 304 311 310 305 311 341 3 22 12 7 12 17 21 29 26 30 57 86 104 122 144 148 169 163 143 146 150 143
93 173 229 258 265 248 248 243 217 213 213 219 241 248 267 271 269 277 279 286 299 313 314 306 331 347 5 16 15 16 19 17 43 77 94 128 132 129 131 128 128 134 134 127
72 162 237 297 295 267 267 254 234 231 228 233 252 264 263 273 280 284 268 242 253 271 278 289 307 334 340 357 2 7 11 7 42 74 71 59 98 108 116 117 114 109 102 106
95 119 87 280 309 350 274 240 220 219 215 205 231 246 258 269 259 252 248 231 234 247 252 256 271 278 294 311 328 357 7 16 43 72 71 65 96 114 124 121 111 110 110 110
146 128 148 288 19 245 246 214 201 221 239 228 242 259 247 246 255 250 229 217 230 240 238 240 250 288 315 337 6 26 37 40 47 57 57 52 61 98 115 116 120 121 128 130
162 153 149 157 255 278 290 248 188 209 265 234 238 254 261 289 318 287 242 215 224 229 226 224 228 238 323 14 44 64 52 47 50 44 34 31 78 115 123 125 128 125 128 127
91 120 140 151 204 246 258 259 186 122 278 254 223 244 246 189 247 264 248 225 230 225 193 187 148 115 115 31 87 85 65 49 14 354 335 326 102 140 141 144 131 116 120 121
131 130 177 190 225 263 258 213 130 178 252 279 233 240 224 212 233 256 231 219 199 180 161 132 122 135 187 135 102 94 76 352 317 331 357 14 12 109 130 123 116 121 113 100
188 184 192 172 209 252 216 144 189 230 273 263 252 244 227 235 259 257 229 201 175 154 136 126 124 64 1 113 115 112 268 313 6 40 66 51 25 53 81 97 96 110 121 111
207 200 195 199 219 248 195 209 238 244 245 255 250 246 222 233 246 251 225 209 196 177 165 140 136 90 15 33 127 142 284 15 69 66 62 60 52 54 71 98 102 89 104 117
250 207 207 245 256 252 244 252 266 249 246 258 243 233 208 218 234 238 221 205 197 188 177 151 134 123 355 355 47 143 93 70 93 86 58 51 62 51 42 58 95 126 153 164
233 195 218 251 271 289 262 245 247 250 252 254 251 230 213 205 220 218 216 207 197 201 189 168 173 189 243 5 9 22 72 100 95 84 64 47 49 63 52 47 60 188 224 204
208 197 205 237 233 221 252 256 234 233 242 237 231 244 232 209 212 205 212 219 196 201 185 173 187 200 227 176 289 5 85 122 126 117 80 44 38 39 39 44 19 19 12 4
Height
1474 1478 1479 1478 1479 1481 1484 1487 1490 1489 1487 1489 1491 1492 1490 1489 1489 1489 1489 1490 1491 1492 1494 1495 1497 1498 1500 1503 1505 1507 1509 1512 1514 1516 1518 1520 1523 1525 1527 1529 1531 1533 1535 1536
1478 1479 1478 1478 1479 1481 1483 1487 1489 1489 1487 1489 1492 1492 1490 1489 1489 1489 1489 1489 1490 1491 1492 1493 1494 1496 1498 1500 1502 1504 1506 1509 1511 1513 1515 1518 1520 1523 1525 1527 1528 1530 1532 1534
1478 1478 1477 1478 1479 1481 1484 1486 1488 1489 1489 1490 1493 1493 1491 1489 1488 1488 1488 1488 1489 1490 1490 1491 1492 1494 1495 1497 1499 1501 1503 1506 1508 1510 1512 1515 1517 1519 1522 1523 1525 1527 1529 1531
1479 1477 1477 1478 1480 1481 1485 1483 1485 1486 1491 1496 1494 1499 1493 1490 1489 1488 1487 1487 1487 1488 1489 1489 1490 1491 1493 1494 1496 1499 1501 1503 1505 1507 1509 1510 1512 1515 1518 1520 1522 1524 1526 1528
1481 1479 1479 1480 1481 1482 1484 1483 1485 1487 1492 1498 1497 1501 1496 1491 1489 1487 1486 1486 1486 1487 1487 1487 1488 1489 1491 1492 1494 1496 1498 1500 1502 1503 1506 1507 1510 1512 1515 1517 1519 1521 1523 1524
1482 1481 1482 1482 1482 1482 1483 1485 1488 1492 1495 1501 1499 1501 1497 1492 1487 1486 1485 1484 1484 1485 1485 1486 1487 1488 1489 1490 1491 1493 1496 1497 1499 1501 1503 1504 1506 1509 1511 1513 1516 1517 1519 1521
1487 1485 1484 1483 1484 1484 1484 1489 1497 1499 1502 1502 1499 1498 1494 1486 1484 1483 1483 1482 1482 1483 1483 1483 1484 1485 1486 1487 1489 1491 1493 1495 1496 1498 1500 1501 1504 1506 1508 1510 1512 1514 1516 1517
1493 1492 1487 1486 1487 1489 1488 1490 1497 1500 1501 1503 1502 1499 1490 1484 1482 1481 1481 1481 1481 1481 1481 1481 1482 1484 1485 1486 1487 1489 1490 1492 1494 1495 1497 1499 1501 1503 1504 1506 1508 1510 1512 1514
1495 1495 1488 1487 1487 1489 1491 1493 1495 1501 1506 1507 1504 1498 1489 1482 1481 1480 1480 1480 1480 1479 1480 1480 1481 1481 1482 1483 1485 1486 1488 1490 1491 1493 1494 1496 1498 1500 1501 1503 1505 1507 1509 1511
1495 1498 1492 1489 1488 1490 1491 1493 1498 1501 1503 1501 1500 1498 1491 1484 1481 1480 1480 1479 1479 1479 1478 1478 1478 1479 1480 1482 1483 1485 1486 1487 1489 1490 1492 1493 1495 1497 1498 1500 1501 1503 1505 1507
1495 1500 1497 1493 1494 1495 1495 1497 1499 1503 1504 1504 1502 1494 1483 1482 1480 1479 1478 1477 1477 1477 1477 1477 1477 1478 1479 1480 1481 1482 1484 1485 1487 1488 1489 1491 1492 1493 1495 1497 1498 1500 1502 1503
1497 1501 1503 1498 1495 1494 1495 1496 1499 1501 1506 1508 1506 1496 1481 1480 1479 1478 1477 1477 1476 1476 1475 1475 1476 1476 1477 1478 1479 1480 1481 1483 1484 1486 1487 1488 1489 1491 1492 1494 1495 1497 1498 1500
1497 1503 1505 1501 1500 1498 1498 1497 1498 1501 1506 1509 1504 1492 1481 1480 1479 1478 1477 1477 1476 1475 1475 1475 1475 1475 1476 1476 1478 1479 1480 1480 1482 1483 1484 1486 1487 1488 1489 1491 1492 1494 1495 1497
1496 1504 1505 1502 1497 1499 1500 1498 1498 1499 1502 1503 1498 1488 1482 1480 1479 1478 1477 1476 1475 1475 1474 1474 1474 1475 1475 1475 1476 1476 1477 1478 1480 1481 1482 1483 1484 1485 1486 1488 1489 1491 1492 1493
1497 1504 1505 1502 1498 1497 1496 1495 1495 1495 1495 1496 1489 1487 1481 1480 1479 1478 1477 1475 1474 1474 1474 1473 1473 1473 1473 1474 1474 1475 1475 1476 1477 1478 1479 1480 1481 1482 1484 1485 1486 1487 1489 1490
1500 1503 1503 1501 1497 1496 1495 1491 1490 1489 1490 1489 1487 1484 1479 1478 1477 1476 1475 1474 1474 1473 1473 1473 1472 1472 1472 1472 1472 1473 1473 1474 1475 1476 1477 1477 1478 1480 1481 1482 1483 1484 1485 1486
1502 1504 1503 1502 1500 1496 1494 1486 1486 1486 1484 1484 1482 1478 1477 1477 1476 1474 1473 1473 1472 1472 1472 1472 1471 1471 1471 1471 1471 1471 1471 1472 1472 1473 1474 1475 1476 1477 1478 1479 1480 1481 1482 1484
1501 1504 1507 1506 1502 1500 1485 1482 1482 1482 1480 1480 1477 1475 1474 1473 1472 1472 1471 1471 1470 1470 1470 1470 1470 1470 1470 1470 1470 1470 1470 1470 1470 1470 1471 1472 1473 1474 1475 1476 1477 1478 1480 1481
1497 1502 1507 1508 1506 1496 1484 1480 1481 1482 1478 1475 1474 1472 1472 1471 1471 1469 1468 1468 1468 1468 1468 1468 1468 1468 1468 1469 1469 1469 1469 1468 1469 1469 1470 1471 1471 1472 1472 1473 1474 1475 1476 1477
1498 1500 1507 1509 1504 1495 1481 1478 1477 1480 1478 1469 1469 1469 1469 1470 1472 1467 1465 1466 1466 1466 1467 1467 1466 1467 1467 1467 1467 1467 1467 1467 1467 1468 1468 1469 1470 1470 1470 1471 1472 1473 1474 1474
1501 1504 1506 1507 1505 1490 1478 1477 1478 1483 1474 1467 1466 1466 1466 1467 1466 1464 1463 1464 1464 1465 1465 1465 1465 1465 1465 1465 1465 1465 1465 1466 1466 1466 1467 1467 1468 1468 1468 1469 1469 1470 1471 1472
1496 1500 1503 1504 1503 1488 1474 1474 1476 1471 1466 1465 1464 1463 1463 1462 1462 1461 1461 1462 1462 1462 1463 1463 1463 1463 1463 1464 1464 1463 1464 1464 1464 1465 1465 1465 1466 1466 1467 1467 1468 1469 1469 1470
1489 1487 1487 1487 1480 1470 1468 1466 1466 1465 1464 1463 1462 1461 1461 1460 1460 1459 1459 1460 1460 1461 1461 1461 1461 1461 1462 1462 1462 1462 1462 1462 1462 1463 1463 1464 1464 1465 1465 1466 1466 1467 1467 1468
1482 1480 1481 1479 1469 1465 1465 1464 1463 1462 1461 1461 1460 1460 1459 1458 1458 1458 1458 1458 1458 1459 1460 1460 1460 1460 1460 1460 1461 1461 1461 1461 1461 1461 1462 1462 1462 1463 1464 1464 1465 1465 1466 1466
1475 1476 1476 1472 1464 1462 1459 1459 1458 1458 1458 1457 1457 1457 1456 1456 1456 1456 1456 1456 1457 1457 1458 1458 1458 1458 1458 1459 1459 1459 1459 1460 1460 1460 1460 1461 1461 1462 1462 1463 1463 1464 1465 1465
1467 1468 1469 1463 1458 1458 1455 1455 1455 1455 1455 1454 1454 1453 1453 1453 1453 1453 1454 1454 1455 1456 1456 1456 1456 1456 1457 1457 1457 1458 1458 1458 1458 1458 1459 1459 1460 1460 1460 1461 1461 1462 1463 1463